This is the latest recevied weather packets stored in our database for station/object KE8RXN. If no packets are shown the sender has not sent any weather packets the latest 1 day(s).
| Time | Temp. | Humidity | Pressure | Rain* | Wind** | Luminosity | Snow |
|---|---|---|---|---|---|---|---|
| 1777980027 | 8.89° C | 79% | 1008.2 hPa | 0 mm | 0.45 m/s, 354° | 28 W/m² | - |
| 1777979726 | 8.89° C | 78% | 1008.2 hPa | 0 mm | 0.45 m/s, 355° | 27 W/m² | - |
| 1777979422 | 8.89° C | 78% | 1008.2 hPa | 0 mm | 0.45 m/s, 313° | 25 W/m² | - |
| 1777979120 | 8.89° C | 78% | 1008 hPa | 0 mm | 0.45 m/s, 2° | 26 W/m² | - |
| 1777978816 | 8.89° C | 78% | 1008.1 hPa | 0 mm | 0.45 m/s, 320° | 19 W/m² | - |
| 1777978513 | 8.33° C | 79% | 1007.9 hPa | 0 mm | 0.45 m/s, 354° | 15 W/m² | - |
| 1777978209 | 8.33° C | 79% | 1007.9 hPa | 0 mm | 0.45 m/s, 329° | 13 W/m² | - |
| 1777977906 | 8.33° C | 79% | 1007.6 hPa | 0 mm | 0.45 m/s, 18° | 7 W/m² | - |
| 1777977603 | 8.33° C | 79% | 1007.4 hPa | 0 mm | 0.45 m/s, 21° | 4 W/m² | - |
| 1777977300 | 8.33° C | 79% | 1007.5 hPa | 0 mm | 0.45 m/s, 1° | 2 W/m² | - |
| 1777976997 | 8.33° C | 79% | 1007.3 hPa | 0 mm | 0.45 m/s, 29° | 0 W/m² | - |
| 1777976694 | 8.33° C | 79% | 1007.2 hPa | 0 mm | 0 m/s | 0 W/m² | - |
| 1777976391 | 8.89° C | 78% | 1007.2 hPa | 0 mm | 0.45 m/s, 353° | 0 W/m² | - |
| 1777976084 | 8.89° C | 77% | 1007.2 hPa | 0 mm | 0.45 m/s, 356° | 0 W/m² | - |
| 1777975780 | 8.89° C | 76% | 1007.3 hPa | 0 mm | 0.89 m/s, 267° | 0 W/m² | - |
| 1777975478 | 8.89° C | 75% | 1007 hPa | 0 mm | 0.45 m/s, 13° | 0 W/m² | - |
| 1777975173 | 8.89° C | 73% | 1007.3 hPa | 0 mm | 0.89 m/s, 299° | 0 W/m² | - |
| 1777974871 | 9.44° C | 72% | 1006.8 hPa | 0 mm | 0.89 m/s, 301° | 0 W/m² | - |
| 1777974567 | 9.44° C | 71% | 1006.6 hPa | 0 mm | 0.45 m/s, 313° | 0 W/m² | - |
| 1777974264 | 9.44° C | 71% | 1006.4 hPa | 0 mm | 0.45 m/s, 349° | 0 W/m² | - |
| 1777973960 | 10° C | 70% | 1006.2 hPa | 0 mm | 0.45 m/s, 14° | 0 W/m² | - |
| 1777973657 | 10° C | 69% | 1006.3 hPa | 0 mm | 0.89 m/s, 309° | 0 W/m² | - |
| 1777973354 | 10° C | 68% | 1006.1 hPa | 0 mm | 0 m/s | 0 W/m² | - |
| 1777973052 | 10.56° C | 66% | 1006 hPa | 0 mm | 0.89 m/s, 321° | 0 W/m² | - |
| 1777972749 | 10.56° C | 65% | 1006.1 hPa | 0 mm | 0.45 m/s, 16° | 0 W/m² | - |
* Rain latest hour (hover to see other rain measurements)
** Current wind speed in m/s (hover to see current wind gust speed)